Regional Weather Roundup
Issued by NWS

Home | Current Version | Previous Version | Text Only | Print | Product List | Glossary Off
Versions: 1 2 3 4 5 6 7 8 9 10 11 12 13 14 15 16 17 18 19 20 21 22 23 24 25 26 27 28 29 30 31 32 33 34 35 36 37 38 39 40 41 42 43 44 45 46 47 48 49 50

000
ASUS43 KBIS 250610
RWRND

NORTH DAKOTA REGIONAL WEATHER ROUNDUP
NATIONAL WEATHER SERVICE BISMARCK ND
100 AM CDT FRI JUL 25 2014

NOTE: "FAIR" INDICATES FEW OR NO CLOUDS BELOW 12,000 FEET WITH NO
SIGNIFICANT WEATHER AND/OR OBSTRUCTIONS TO VISIBILITY.


NDZ001>003-009>011-017-250700-
NORTHWEST NORTH DAKOTA

CITY           SKY/WX    TMP DP  RH WIND       PRES   REMARKS
WILLISTON      PTCLDY    60  56  86 NW7       29.83R
6HR MIN TEMP:  60; 6HR MAX TEMP:  83; 6HR PCP:  0.17;

MINOT          CLOUDY    69  66  90 SW7       29.80R
MINOT AFB      TSTM      69  69  99 SE12      29.76R
$$

NDZ018>021-031>035-040>046-250700-
SOUTHWEST NORTH DAKOTA

CITY           SKY/WX    TMP DP  RH WIND       PRES   REMARKS
BISMARCK       CLOUDY    68  65  90 E9        29.66F
6HR MIN TEMP:  68; 6HR MAX TEMP:  80; 6HR PCP: TRACE;

DICKINSON      CLEAR     66  63  90 NW14      29.78R
GARRISON         N/A     69  67  93 NW3       29.74R
6HR MIN TEMP:  69; 6HR MAX TEMP:  77;

HETTINGER ARPT PTCLDY    67  62  84 NW20G26   29.78R
$$

NDZ004>008-012>016-024-026-027-054-250700-
NORTHEAST NORTH DAKOTA

CITY           SKY/WX    TMP DP  RH WIND       PRES   REMARKS
GRAND FORKS    CLOUDY    70  61  73 SE9       29.78F
GRND FRKS AFB  CLOUDY    68  65  90 SE7       29.79F
DEVILS LAKE    CLOUDY    68  61  77 E8        29.80R
$$

NDZ022-023-025-028>030-036>039-047>053-250700-
SOUTHEAST NORTH DAKOTA

CITY           SKY/WX    TMP DP  RH WIND       PRES   REMARKS
FARGO          LGT RAIN  69  61  75 SE8       29.77F
6HR MIN TEMP:  69; 6HR MAX TEMP:  76; 6HR PCP: TRACE;

JAMESTOWN      CLOUDY    67  63  87 NE6       29.73F
$$




USA.gov is the U.S. government's official web portal to all federal, state and local government web resources and services.